{"data":{"norad_id":56097,"epoch":"2026-05-25T02:44:21.778080Z","epoch_age_seconds":61596,"freshness":"FRESH","line1":"1 56097U 23046E   26145.11414095  .00011609  00000+0  43134-3 0  9999","line2":"2 56097  43.0059  42.6774 0001537 236.9065 123.1639 15.27532969174261","mean_motion":15.27532969,"eccentricity":0.0001537,"inclination_deg":43.0059,"raan_deg":42.6774,"arg_perigee_deg":236.9065,"mean_anomaly_deg":123.1639,"bstar":0.00043134,"rev_number":17426,"period_min":94.269651079459,"perigee_km":482.13534143749,"apogee_km":484.24451333497,"semimajor_km":6861.3269273862,"source":"CELESTRAK","updated_at":"2026-05-25T13:38:17.953687Z"}}